Starlink 5188

operational
NORAD ID: 54096 Int'l Des: 2022-136 Owner: SPXS Country: US Constellation: starlink
LEOCIRCULAR

关于 Starlink 5188

正在加载描述...

实时位置

正在加载3D地球...

即将过境

高度历史

Altitude vs Time

uPlot chart will show altitude changes over time

两行轨道根数

1 54096U 22136AX 25352.25823496 .00000203 00000-0 30872-4 0 9993
2 54096 53.2185 339.4716 0001302 87.3443 272.7698 15.08837763174694
Epoch: Dec 18, 2025 • Age: 6 hours

当前状态

高度 540.2 km
速度 7.60 km/s
星下点 24.70°N, 80.45°E
发射日期 Oct 20, 2022
运行时间 3.1 years
类型 internet

技术详情

分类 Payload
质量 305.00 kg
干质量 290.00 kg
总质量 305.00 kg
长度 0.20 m
直径 2.80 m
跨度 9.00 m
形状 Box + pan
制造商 SPXS
平台类型 Starlink
阶段状态 In Orbit
所有者/国家 SPXS/US

大型星座

Loading constellations...